Location: Home
(51.5204°N, 2.5456°W)
Time: 02:05:33
(UTC+00:00)

N. Korean satellite - Pass Details

Date: 14 October 2019
Orbit: 456 x 506 km, 97.2° (Epoch: 14 November)

Event Time Altitude Azimuth Distance (km) Brightness Sun altitude
Rises 18:58:39 0° 198° (SSW) 2,467 10.5 -6.8°
Reaches altitude 10° 19:01:01 10° 214° (SW) 1,598 9.8 -7.2°
Maximum altitude 19:03:44 22° 267° (W) 1,062 9.5 -7.6°
Drops below altitude 10° 19:06:28 10° 319° (NW) 1,613 9.8 -8.0°
Sets 19:08:52 0° 336° (NNW) 2,498 10.5 -8.4°
